Regional Weather Roundup
Issued by NWS

Home | Current Version | Previous Version | Graphics & Text | Print | Product List | Glossary On
Versions: 1 2 3 4 5 6 7 8 9 10 11 12 13 14 15 16 17 18 19 20 21 22 23 24 25 26 27 28 29 30 31 32 33 34 35 36 37 38 39 40 41 42 43 44 45 46 47 48 49 50
000
ASUS43 KLMK 291502
RWRKY
KENTUCKY REGIONAL WEATHER ROUNDUP
NATIONAL WEATHER SERVICE LOUISVILLE KY
1100 AM EDT FRI APR 29 2016

NOTE "FAIR" INDICATES FEW OR NO CLOUDS BELOW 12,000 FEET
WITH NO SIGNIFICANT WEATHER AND/OR OBSTRUCTIONS TO VISIBILITY.

KYZ001>023-026-027-061>063-070>075-291600-
WESTERN AND SOUTH CENTRAL KENTUCKY

CITY           SKY/WX    TMP DP  RH WIND       PRES   REMARKS
PADUCAH        CLOUDY    63  52  67 E7        30.00F
HENDERSON      PTSUNNY   63  46  55 NE12      30.02F
OWENSBORO      PTSUNNY   64  49  58 E9        30.04F
HOPKINSVILLE   MOSUNNY   66  55  67 E10       30.01F
BOWLING GREEN  SUNNY     69  56  62 NE9       30.03F
GLASGOW        NOT AVBL
$$

KYZ024-025-028>034-038-045-046-053-291600-
NORTH CENTRAL KENTUCKY

CITY           SKY/WX    TMP DP  RH WIND       PRES   REMARKS
LOUISVILLE/SDF CLOUDY    66  44  45 N6        30.06R
LOUISVILLE/LOU MOSUNNY   65  45  48 N5        30.06R
FORT KNOX      MOSUNNY   64  47  55 VRB2      30.04S
$$

KYZ035>037-039>044-047>052-055>060-089>105-291600-
NORTHEAST KENTUCKY

CITY           SKY/WX    TMP DP  RH WIND       PRES   REMARKS
LEXINGTON      CLOUDY    65  51  60 W7        30.05F
COVINGTON      PTSUNNY   61  51  70 W6        30.03R
FRANKFORT      SUNNY     65  47  52 CALM      30.04S
$$

KYZ054-064>069-076>088-106>120-291600-
SOUTHEAST KENTUCKY

CITY           SKY/WX    TMP DP  RH WIND       PRES   REMARKS
JACKSON        SUNNY     68  50  52 CALM      30.05R
LONDON         SUNNY     68  53  58 VRB3      30.05S
SOMERSET       NOT AVBL
MIDDLESBORO    NOT AVBL
MONTICELLO     SUNNY     69  56  62 N10       30.07S
$$





USA.gov is the U.S. government's official web portal to all federal, state and local government web resources and services.